CW8826 Weather Reports


Display with metric or nautical units.
time (UTC)temp
F
wind
direction
speed
MPH
gust
MPH
rain 1hr
in
rain 24hr
in
rain mn
in
humidity
%
barometer
mb
20260507051017 52 113 10.0 16.0 0.00 0.19 0.19 38 1020.3
20260507050017 52 113 7.0 15.0 0.00 0.19 0.19 37 1020.0
20260507045037 52 113 8.0 16.0 0.00 0.19 0.19 38 1020.0
20260507044017 52 113 5.0 13.0 0.00 0.19 0.19 36 1020.0
20260507043017 53 113 7.0 11.0 0.00 0.19 0.19 34 1019.9
20260507042017 53 113 8.0 15.0 0.00 0.19 0.19 36 1019.9
20260507041017 52 90 7.0 13.0 0.00 0.19 0.19 36 1019.4
20260507040017 52 113 10.0 18.0 0.00 0.19 0.19 38 1019.4
20260507035017 53 113 8.0 15.0 0.00 0.19 0.19 35 1019.4
20260507034018 54 90 10.0 17.0 0.00 0.19 0.19 36 1019.8
20260507033017 53 90 10.0 18.0 0.00 0.19 0.19 37 1019.3
20260507032017 53 113 9.0 17.0 0.00 0.19 0.19 37 1019.0
20260507031037 54 68 8.0 14.0 0.00 0.19 0.19 34 1019.1
20260507030017 54 90 9.0 15.0 0.00 0.19 0.19 36 1018.3
20260507025017 55 90 8.0 15.0 0.00 0.19 0.19 34 1018.2
20260507024017 55 113 7.0 12.0 0.00 0.19 0.19 33 1018.7
20260507023017 56 90 4.0 7.0 0.00 0.19 0.19 31 1018.6
20260507022017 57 113 4.0 7.0 0.00 0.19 0.19 31 1018.9
20260507021017 60 113 1.0 4.0 0.00 0.19 0.19 28 1019.3
20260507020017 61 0.0 1.0 0.00 0.19 0.19 24 1019.6
20260507015017 62 0.0 1.0 0.00 0.19 0.19 24 1019.8
20260507014017 62 315 1.0 3.0 0.00 0.19 0.19 25 1019.8
20260507013017 62 315 2.0 5.0 0.00 0.19 0.19 24 1020.2
20260507012017 62 23 1.0 2.0 0.00 0.19 0.19 24 1020.1
20260507010017 62 248 2.0 4.0 0.00 0.19 0.19 24 1020.6
20260507005037 62 270 1.0 4.0 0.00 0.19 0.19 25 1020.6
20260507004017 62 270 1.0 2.0 0.00 0.19 0.19 24 1020.7
20260507003037 62 270 2.0 5.0 0.00 0.19 0.19 26 1020.4
20260507002017 61 315 5.0 9.0 0.00 0.19 0.19 26 1020.2
20260507001017 62 248 5.0 10.0 0.00 0.19 0.19 25 1020.3
20260507000016 62 315 1.0 5.0 0.00 0.19 0.19 25 1020.3
20260506235017 61 315 3.0 10.0 0.00 0.19 0.19 25 1019.9
20260506234117 62 270 3.0 7.0 0.00 0.19 0.19 25 1020.2
20260506233017 61 248 3.0 7.0 0.00 0.19 0.19 26 1019.9
20260506232017 60 225 4.0 12.0 0.00 0.19 0.19 26 1019.7
20260506231016 61 293 3.0 7.0 0.00 0.19 0.19 27 1020.1
20260506230016 61 0 5.0 12.0 0.00 0.19 0.19 26 1020.1
20260506225017 60 315 4.0 10.0 0.00 0.19 0.19 26 1019.8
20260506224016 61 270 3.0 10.0 0.00 0.19 0.19 27 1019.8
20260506223016 61 248 3.0 9.0 0.00 0.19 0.19 26 1020.3
20260506222037 60 248 2.0 9.0 0.00 0.19 0.19 28 1020.0
20260506221017 60 225 5.0 11.0 0.00 0.19 0.19 28 1020.0
20260506220017 59 315 5.0 14.0 0.00 0.19 0.19 27 1019.2
20260506215016 59 315 4.0 11.0 0.00 0.19 0.19 29 1019.4
20260506214016 59 315 7.0 16.0 0.00 0.20 0.19 28 1019.6
20260506213016 59 315 8.0 16.0 0.00 0.20 0.19 29 1019.4
20260506212016 59 315 6.0 14.0 0.00 0.20 0.19 29 1019.5
20260506211016 59 270 5.0 12.0 0.00 0.20 0.19 29 1019.4
20260506210017 59 315 8.0 16.0 0.00 0.20 0.19 28 1019.6
20260506205017 59 315 4.0 10.0 0.00 0.20 0.19 28 1019.6
20260506204036 59 315 5.0 12.0 0.00 0.20 0.19 27 1019.6
20260506203016 58 270 4.0 10.0 0.00 0.20 0.19 27 1020.7
20260506202017 58 270 3.0 8.0 0.00 0.20 0.19 28 1020.8
20260506201017 57 315 4.0 10.0 0.00 0.20 0.19 28 1020.5
20260506200016 57 315 6.0 11.0 0.00 0.20 0.19 26 1020.5
20260506195036 56 315 5.0 9.0 0.00 0.20 0.19 27 1020.5
20260506194016 56 315 5.0 10.0 0.00 0.20 0.19 29 1020.8
20260506193017 56 315 4.0 9.0 0.00 0.20 0.19 27 1020.7
20260506192016 55 315 4.0 9.0 0.00 0.20 0.19 29 1020.6
20260506191017 55 23 5.0 12.0 0.00 0.20 0.19 29 1020.3
20260506190017 54 315 7.0 12.0 0.00 0.20 0.19 29 1020.3
20260506185017 54 270 4.0 10.0 0.00 0.20 0.19 30 1020.2
20260506184017 54 270 3.0 13.0 0.00 0.20 0.19 29 1020.2
20260506183017 53 315 3.0 11.0 0.00 0.20 0.19 29 1020.5
20260506182017 52 315 5.0 11.0 0.00 0.20 0.19 28 1020.3
20260506181017 52 315 5.0 10.0 0.00 0.20 0.19 26 1020.3
20260506180016 52 315 5.0 10.0 0.00 0.20 0.19 28 1020.2
20260506175016 52 315 6.0 10.0 0.00 0.20 0.19 27 1020.2
20260506174018 52 338 3.0 10.0 0.00 0.20 0.19 27 1020.1
20260506173037 51 0 4.0 8.0 0.00 0.20 0.19 25 1020.1
20260506172017 51 68 5.0 13.0 0.00 0.20 0.19 24 1020.0
20260506171017 51 0 4.0 8.0 0.00 0.20 0.19 27 1020.0
20260506170018 51 0 4.0 8.0 0.00 0.20 0.19 34 1019.5
20260506165017 50 23 3.0 6.0 0.00 0.20 0.19 33 1019.3
20260506164016 50 315 3.0 6.0 0.00 0.20 0.19 37 1019.3
20260506163017 50 338 5.0 8.0 0.00 0.20 0.19 42 1019.5
20260506162016 49 315 5.0 10.0 0.00 0.20 0.19 40 1019.0
20260506161056 47 0 7.0 14.0 0.00 0.20 0.19 47 1018.9
20260506160016 47 338 7.0 15.0 0.00 0.20 0.19 50 1018.8
20260506155037 47 0 5.0 9.0 0.00 0.20 0.19 51 1018.7
20260506154017 47 338 6.0 12.0 0.00 0.20 0.19 49 1018.7
20260506153017 46 0 4.0 9.0 0.00 0.20 0.19 49 1018.7
20260506152017 46 0 6.0 13.0 0.00 0.20 0.19 50 1018.7
20260506151016 46 0 5.0 10.0 0.00 0.20 0.19 50 1018.6
20260506150016 45 0 3.0 8.0 0.00 0.20 0.19 52 1018.8
20260506145017 44 113 1.0 3.0 0.00 0.20 0.19 53 1018.1
20260506144016 43 113 2.0 3.0 0.00 0.20 0.19 58 1018.0
20260506143017 43 113 2.0 2.0 0.00 0.20 0.19 54 1018.3
20260506142016 43 113 1.0 1.0 0.00 0.20 0.19 53 1018.1
20260506141016 43 113 2.0 4.0 0.00 0.20 0.19 50 1017.9
20260506140016 43 113 2.0 5.0 0.00 0.20 0.19 51 1018.5
20260506135018 42 113 3.0 4.0 0.00 0.20 0.19 49 1018.1
20260506134017 43 113 1.0 3.0 0.00 0.20 0.19 46 1018.3
20260506133017 43 113 2.0 6.0 0.00 0.20 0.19 45 1018.1
20260506132017 43 90 5.0 12.0 0.00 0.20 0.19 47 1017.8
20260506131017 44 90 6.0 12.0 0.00 0.20 0.19 46 1017.5
20260506130017 44 113 7.0 18.0 0.00 0.20 0.19 48 1017.3
20260506125016 46 68 7.0 14.0 0.00 0.20 0.19 38 1017.4
20260506124016 46 68 6.0 10.0 0.00 0.20 0.19 39 1017.3
20260506123056 46 68 6.0 12.0 0.00 0.20 0.19 40 1017.1
20260506122016 45 90 8.0 15.0 0.00 0.20 0.19 42 1016.6
20260506121017 45 90 5.0 11.0 0.00 0.20 0.19 51 1016.6
20260506120016 45 68 7.0 10.0 0.00 0.20 0.19 50 1016.4
20260506115017 44 68 10.0 15.0 0.00 0.20 0.19 57 1016.5
20260506114057 44 45 10.0 19.0 0.00 0.20 0.19 56 1016.4
20260506113017 45 90 8.0 17.0 0.00 0.20 0.19 56 1015.5
20260506112019 45 90 12.0 19.0 0.00 0.20 0.19 51 1015.4
20260506111016 44 68 12.0 22.0 0.00 0.20 0.19 56 1014.9
20260506110016 43 45 13.0 20.0 0.00 0.20 0.19 59 1014.5
20260506105017 43 68 12.0 23.0 0.00 0.20 0.19 60 1014.7
20260506104016 43 45 14.0 25.0 0.00 0.20 0.19 59 1014.3
20260506103017 43 68 15.0 26.0 0.00 0.20 0.19 59 1014.1
20260506102016 43 68 18.0 30.0 0.00 0.20 0.19 62 1013.8
20260506101017 43 45 18.0 28.0 0.00 0.20 0.19 63 1013.7
20260506100016 43 45 17.0 30.0 0.00 0.20 0.19 62 1013.3
20260506095037 43 45 18.0 27.0 0.00 0.20 0.19 72 1013.2
20260506094016 40 45 16.0 25.0 0.01 0.20 0.19 91 1012.5
20260506093016 40 45 19.0 29.0 0.11 0.20 0.19 92 1012.5
20260506092037 40 68 17.0 27.0 0.15 0.20 0.19 91 1012.5
20260506091016 39 45 16.0 31.0 0.15 0.20 0.19 91 1012.1
20260506090137 39 45 16.0 27.0 0.15 0.20 0.19 92 1011.7
20260506085017 39 45 16.0 26.0 0.15 0.20 0.19 92 1011.8
20260506084016 39 68 12.0 21.0 0.14 0.19 0.18 90 1012.1
20260506083036 42 45 11.0 24.0 0.04 0.09 0.08 77 1012.5
20260506082017 44 68 14.0 26.0 0.00 0.05 0.04 71 1012.3
20260506081016 47 68 8.0 18.0 0.00 0.05 0.04 68 1012.1
20260506073016 48 68 6.0 11.0 0.03 0.05 0.04 76 1011.2
20260506072056 48 113 7.0 11.0 0.04 0.05 0.04 79 1011.4
20260506071016 48 90 8.0 12.0 0.04 0.05 0.04 78 1011.6
20260506062037 50 0.0 2.0 0.00 0.01 0.00 73 1011.7
20260506061016 51 113 1.0 4.0 0.00 0.01 0.00 64 1011.2